Time,TemperatureF,DewpointF,PressureIn,WindDirection,WindDirectionDegrees,WindSpeedMPH,WindSpeedGustMPH,Humidity,HourlyPrecipIn,Conditions,Clouds,dailyrainin,SoftwareType,DateUTC
2013-04-09 00:00:00,62.6,47.1,30.06,West,270,0.0,0.0,57,0.00,CLR,,0.00,WeatherDisplay:10.37,2013-04-09 04:00:00,
2013-04-09 00:01:00,62.6,47.1,30.06,West,270,0.0,0.0,57,0.00,CLR,,0.00,WeatherDisplay:10.37,2013-04-09 04:01:00,
2013-04-09 00:06:00,62.4,47.4,30.06,West,270,0.0,0.0,58,0.00,CLR,,0.00,WeatherDisplay:10.37,2013-04-09 04:06:00,
2013-04-09 00:11:00,62.4,47.4,30.06,West,270,0.0,0.0,58,0.00,CLR,,0.00,WeatherDisplay:10.37,2013-04-09 04:11:00,
2013-04-09 00:16:00,62.2,47.7,30.09,West,270,0.0,0.0,59,0.00,CLR,,0.00,WeatherDisplay:10.37,2013-04-09 04:16:00,
2013-04-09 00:21:00,62.2,48.2,30.09,WSW,248,0.0,0.0,60,0.00,CLR,,0.00,WeatherDisplay:10.37,2013-04-09 04:21:00,
2013-04-09 00:26:00,62.2,48.6,30.09,SSW,202,0.0,0.0,61,0.00,CLR,,0.00,WeatherDisplay:10.37,2013-04-09 04:26:00,
2013-04-09 00:31:00,62.2,48.6,30.09,WSW,248,0.0,0.0,61,0.00,CLR,,0.00,WeatherDisplay:10.37,2013-04-09 04:31:00,
2013-04-09 00:36:00,62.2,48.6,30.09,WSW,248,0.0,0.0,61,0.00,CLR,,0.00,WeatherDisplay:10.37,2013-04-09 04:36:00,
2013-04-09 00:41:00,61.9,48.3,30.09,WSW,248,0.0,0.0,61,0.00,CLR,,0.00,WeatherDisplay:10.37,2013-04-09 04:41:00,
2013-04-09 00:46:00,61.9,48.7,30.09,WSW,248,0.0,0.0,62,0.00,CLR,,0.00,WeatherDisplay:10.37,2013-04-09 04:46:00,
2013-04-09 00:51:00,61.7,49.0,30.09,WSW,248,0.0,0.0,63,0.00,CLR,,0.00,WeatherDisplay:10.37,2013-04-09 04:51:00,
2013-04-09 00:56:00,61.5,49.2,30.09,WSW,248,0.0,0.0,64,0.00,CLR,,0.00,WeatherDisplay:10.37,2013-04-09 04:56:00,
2013-04-09 01:01:00,61.3,49.5,30.09,WSW,248,0.0,0.0,65,0.00,CLR,,0.00,WeatherDisplay:10.37,2013-04-09 05:01:00,
2013-04-09 01:07:00,61.3,49.9,30.09,WSW,248,0.0,0.0,66,0.00,CLR,,0.00,WeatherDisplay:10.37,2013-04-09 05:07:00,
2013-04-09 01:12:00,61.2,49.7,30.09,WSW,248,0.0,0.0,66,0.00,CLR,,0.00,WeatherDisplay:10.37,2013-04-09 05:12:00,
2013-04-09 01:17:00,61.0,49.5,30.09,WSW,248,0.0,0.0,66,0.00,CLR,,0.00,WeatherDisplay:10.37,2013-04-09 05:17:00,
2013-04-09 01:22:00,61.0,49.5,30.09,WSW,248,0.0,0.0,66,0.00,CLR,,0.00,WeatherDisplay:10.37,2013-04-09 05:22:00,
2013-04-09 01:27:00,60.6,50.0,30.09,WSW,248,0.0,0.0,68,0.00,CLR,,0.00,WeatherDisplay:10.37,2013-04-09 05:27:00,
2013-04-09 01:32:00,60.6,50.0,30.09,WSW,248,0.0,0.0,68,0.00,CLR,,0.00,WeatherDisplay:10.37,2013-04-09 05:32:00,
2013-04-09 01:37:00,60.4,50.2,30.09,WSW,248,0.0,0.0,69,0.00,CLR,,0.00,WeatherDisplay:10.37,2013-04-09 05:37:00,
2013-04-09 01:42:00,60.3,50.4,30.09,WSW,248,0.0,0.0,70,0.00,CLR,,0.00,WeatherDisplay:10.37,2013-04-09 05:42:00,
2013-04-09 01:47:00,60.1,50.3,30.09,WSW,248,0.0,0.0,70,0.00,CLR,,0.00,WeatherDisplay:10.37,2013-04-09 05:47:00,
2013-04-09 01:52:00,59.7,50.3,30.09,WSW,248,0.0,0.0,71,0.00,CLR,,0.00,WeatherDisplay:10.37,2013-04-09 05:52:00,
2013-04-09 01:57:00,59.7,50.7,30.09,WSW,248,0.0,0.0,72,0.00,CLR,,0.00,WeatherDisplay:10.37,2013-04-09 05:57:00,
2013-04-09 02:02:00,59.5,50.5,30.09,WSW,248,0.0,0.0,72,0.00,CLR,,0.00,WeatherDisplay:10.37,2013-04-09 06:02:00,
2013-04-09 02:07:00,59.4,50.3,30.09,WSW,248,0.0,0.0,72,0.00,CLR,,0.00,WeatherDisplay:10.37,2013-04-09 06:07:00,
2013-04-09 02:12:00,59.2,50.5,30.09,WSW,248,0.0,0.0,73,0.00,CLR,,0.00,WeatherDisplay:10.37,2013-04-09 06:12:00,
2013-04-09 02:17:00,59.0,50.4,30.09,WSW,248,0.0,0.0,73,0.00,CLR,,0.00,WeatherDisplay:10.37,2013-04-09 06:17:00,
2013-04-09 02:22:00,59.0,50.7,30.09,WSW,248,0.0,0.0,74,0.00,CLR,,0.00,WeatherDisplay:10.37,2013-04-09 06:22:00,
2013-04-09 02:27:00,58.8,50.9,30.09,WSW,248,0.0,0.0,75,0.00,CLR,,0.00,WeatherDisplay:10.37,2013-04-09 06:27:00,
2013-04-09 02:32:00,58.8,51.3,30.09,WSW,248,0.0,0.0,76,0.00,CLR,,0.00,WeatherDisplay:10.37,2013-04-09 06:32:00,
2013-04-09 02:37:00,58.6,51.1,30.09,WSW,248,0.0,0.0,76,0.00,CLR,,0.00,WeatherDisplay:10.37,2013-04-09 06:37:00,
2013-04-09 02:42:00,58.5,51.3,30.09,WSW,248,0.0,0.0,77,0.00,CLR,,0.00,WeatherDisplay:10.37,2013-04-09 06:42:00,
2013-04-09 02:47:00,58.5,51.3,30.09,WSW,248,0.0,0.0,77,0.00,CLR,,0.00,WeatherDisplay:10.37,2013-04-09 06:47:00,
2013-04-09 02:52:00,58.1,51.3,30.09,WSW,248,0.0,0.0,78,0.00,CLR,,0.00,WeatherDisplay:10.37,2013-04-09 06:52:00,
2013-04-09 02:57:00,58.1,51.6,30.09,WSW,248,0.0,0.0,79,0.00,CLR,,0.00,WeatherDisplay:10.37,2013-04-09 06:57:00,
2013-04-09 03:02:00,57.9,51.8,30.09,WSW,248,0.0,0.0,80,0.00,CLR,,0.00,WeatherDisplay:10.37,2013-04-09 07:02:00,
2013-04-09 03:07:00,57.9,51.8,30.09,WSW,248,0.0,0.0,80,0.00,CLR,,0.00,WeatherDisplay:10.37,2013-04-09 07:07:00,
2013-04-09 03:12:00,57.7,51.9,30.09,WSW,248,0.0,0.0,81,0.00,CLR,,0.00,WeatherDisplay:10.37,2013-04-09 07:12:00,
2013-04-09 03:17:00,57.7,51.9,30.09,WSW,248,0.0,0.0,81,0.00,CLR,,0.00,WeatherDisplay:10.37,2013-04-09 07:17:00,
2013-04-09 03:22:00,57.6,52.1,30.09,WSW,248,0.0,0.0,82,0.00,CLR,,0.00,WeatherDisplay:10.37,2013-04-09 07:22:00,
2013-04-09 03:27:00,57.6,52.1,30.09,WSW,248,0.0,0.0,82,0.00,CLR,,0.00,WeatherDisplay:10.37,2013-04-09 07:27:00,
2013-04-09 03:32:00,57.6,52.4,30.09,WSW,248,0.0,0.0,83,0.00,CLR,,0.00,WeatherDisplay:10.37,2013-04-09 07:32:00,
2013-04-09 03:37:00,57.4,52.3,30.09,WSW,248,0.0,0.0,83,0.00,CLR,,0.00,WeatherDisplay:10.37,2013-04-09 07:37:00,
2013-04-09 03:42:00,57.2,52.4,30.09,WSW,248,0.0,0.0,84,0.00,CLR,,0.00,WeatherDisplay:10.37,2013-04-09 07:42:00,
2013-04-09 03:47:00,57.2,52.4,30.09,WSW,248,0.0,0.0,84,0.00,CLR,,0.00,WeatherDisplay:10.37,2013-04-09 07:47:00,
2013-04-09 03:52:00,57.0,52.6,30.09,WSW,248,0.0,0.0,85,0.00,CLR,,0.00,WeatherDisplay:10.37,2013-04-09 07:52:00,
2013-04-09 03:57:00,57.0,52.6,30.09,WSW,248,0.0,0.0,85,0.00,CLR,,0.00,WeatherDisplay:10.37,2013-04-09 07:57:00,
2013-04-09 04:03:00,56.8,52.4,30.09,WSW,248,0.0,0.0,85,0.00,CLR,,0.00,WeatherDisplay:10.37,2013-04-09 08:03:00,
2013-04-09 04:08:00,56.8,52.7,30.09,WSW,248,0.0,0.0,86,0.00,CLR,,0.00,WeatherDisplay:10.37,2013-04-09 08:08:00,
2013-04-09 04:13:00,56.7,52.5,30.12,WSW,248,0.0,0.0,86,0.00,CLR,,0.00,WeatherDisplay:10.37,2013-04-09 08:13:00,
2013-04-09 04:18:00,56.7,52.5,30.12,WSW,248,0.0,0.0,86,0.00,CLR,,0.00,WeatherDisplay:10.37,2013-04-09 08:18:00,
2013-04-09 04:23:00,56.5,52.7,30.12,WSW,248,0.0,0.0,87,0.00,CLR,,0.00,WeatherDisplay:10.37,2013-04-09 08:23:00,
2013-04-09 04:28:00,56.3,52.5,30.09,WSW,248,0.0,0.0,87,0.00,CLR,,0.00,WeatherDisplay:10.37,2013-04-09 08:28:00,
2013-04-09 04:33:00,56.3,52.8,30.09,WSW,248,0.0,0.0,88,0.00,CLR,,0.00,WeatherDisplay:10.37,2013-04-09 08:33:00,
2013-04-09 04:38:00,56.1,52.6,30.09,WSW,248,0.0,0.0,88,0.00,CLR,,0.00,WeatherDisplay:10.37,2013-04-09 08:38:00,
2013-04-09 04:43:00,55.9,52.4,30.09,WSW,248,0.0,0.0,88,0.00,CLR,,0.00,WeatherDisplay:10.37,2013-04-09 08:43:00,
2013-04-09 04:48:00,55.9,52.4,30.09,WSW,248,0.0,0.0,88,0.00,CLR,,0.00,WeatherDisplay:10.37,2013-04-09 08:48:00,
2013-04-09 04:53:00,55.8,52.6,30.09,WSW,248,0.0,0.0,89,0.00,CLR,,0.00,WeatherDisplay:10.37,2013-04-09 08:53:00,
2013-04-09 04:58:00,55.6,52.4,30.12,WSW,248,0.0,0.0,89,0.00,CLR,,0.00,WeatherDisplay:10.37,2013-04-09 08:58:00,
2013-04-09 05:03:00,55.6,52.4,30.12,WSW,248,0.0,0.0,89,0.00,CLR,,0.00,WeatherDisplay:10.37,2013-04-09 09:03:00,
2013-04-09 05:08:00,55.4,52.5,30.12,WSW,248,0.0,0.0,90,0.00,CLR,,0.00,WeatherDisplay:10.37,2013-04-09 09:08:00,
2013-04-09 05:13:00,55.4,52.5,30.12,WSW,248,0.0,0.0,90,0.00,CLR,,0.00,WeatherDisplay:10.37,2013-04-09 09:13:00,
2013-04-09 05:18:00,55.2,52.6,30.12,WSW,248,0.0,0.0,91,0.00,CLR,,0.00,WeatherDisplay:10.37,2013-04-09 09:18:00,
2013-04-09 05:23:00,55.2,52.6,30.12,WSW,248,0.0,0.0,91,0.00,CLR,,0.00,WeatherDisplay:10.37,2013-04-09 09:23:00,
2013-04-09 05:28:00,55.4,52.8,30.12,WSW,248,0.0,0.0,91,0.00,CLR,,0.00,WeatherDisplay:10.37,2013-04-09 09:28:00,
2013-04-09 05:33:00,55.4,53.1,30.12,WSW,248,0.0,0.0,92,0.00,CLR,,0.00,WeatherDisplay:10.37,2013-04-09 09:33:00,
2013-04-09 05:38:00,55.2,53.2,30.12,WSW,248,0.0,0.0,93,0.00,CLR,,0.00,WeatherDisplay:10.37,2013-04-09 09:38:00,
2013-04-09 05:43:00,55.0,53.1,30.12,WSW,248,0.0,0.0,93,0.00,CLR,,0.00,WeatherDisplay:10.37,2013-04-09 09:43:00,
2013-04-09 05:48:00,55.0,53.3,30.12,WSW,248,0.0,0.0,94,0.00,CLR,,0.00,WeatherDisplay:10.37,2013-04-09 09:48:00,
2013-04-09 05:53:00,54.9,53.2,30.12,WSW,248,0.0,0.0,94,0.00,CLR,,0.00,WeatherDisplay:10.37,2013-04-09 09:53:00,
2013-04-09 05:58:00,54.7,53.0,30.12,WSW,248,0.0,0.0,94,0.00,CLR,,0.00,WeatherDisplay:10.37,2013-04-09 09:58:00,
2013-04-09 06:03:00,54.7,53.0,30.12,WSW,248,0.0,0.0,94,0.00,CLR,,0.00,WeatherDisplay:10.37,2013-04-09 10:03:00,
2013-04-09 06:08:00,54.5,52.8,30.12,WSW,248,0.0,0.0,94,0.00,CLR,,0.00,WeatherDisplay:10.37,2013-04-09 10:08:00,
2013-04-09 06:13:00,54.3,52.6,30.12,WSW,248,0.0,0.0,94,0.00,CLR,,0.00,WeatherDisplay:10.37,2013-04-09 10:13:00,
2013-04-09 06:18:00,54.3,52.6,30.12,WSW,248,0.0,0.0,94,0.00,CLR,,0.00,WeatherDisplay:10.37,2013-04-09 10:18:00,
2013-04-09 06:23:00,54.3,52.6,30.12,WSW,248,0.0,0.0,94,0.00,CLR,,0.00,WeatherDisplay:10.37,2013-04-09 10:23:00,
2013-04-09 06:28:00,54.1,52.5,30.12,WSW,248,0.0,0.0,94,0.00,CLR,,0.00,WeatherDisplay:10.37,2013-04-09 10:28:00,
2013-04-09 06:33:00,54.1,52.5,30.12,WSW,248,0.0,0.0,94,0.00,CLR,,0.00,WeatherDisplay:10.37,2013-04-09 10:33:00,
2013-04-09 06:38:00,54.1,52.7,30.12,WSW,248,0.0,0.0,95,0.00,CLR,,0.00,WeatherDisplay:10.37,2013-04-09 10:38:00,
2013-04-09 06:43:00,54.1,52.7,30.12,WSW,248,0.0,0.0,95,0.00,CLR,,0.00,WeatherDisplay:10.37,2013-04-09 10:43:00,
2013-04-09 06:48:00,54.1,52.7,30.12,WSW,248,0.0,0.0,95,0.00,CLR,,0.00,WeatherDisplay:10.37,2013-04-09 10:48:00,
2013-04-09 06:53:00,54.1,53.0,30.12,WSW,248,0.0,0.0,96,0.00,CLR,,0.00,WeatherDisplay:10.37,2013-04-09 10:53:00,
2013-04-09 06:58:00,54.1,53.0,30.15,WSW,248,0.0,0.0,96,0.00,CLR,,0.00,WeatherDisplay:10.37,2013-04-09 10:58:00,
2013-04-09 07:03:00,54.1,53.0,30.15,WSW,248,0.0,0.0,96,0.00,CLR,,0.00,WeatherDisplay:10.37,2013-04-09 11:03:00,
2013-04-09 07:08:00,54.0,52.8,30.15,WSW,248,0.0,0.0,96,0.00,CLR,,0.00,WeatherDisplay:10.37,2013-04-09 11:08:00,
2013-04-09 07:13:00,54.1,53.3,30.15,WSW,248,0.0,0.0,97,0.00,CLR,,0.00,WeatherDisplay:10.37,2013-04-09 11:13:00,
2013-04-09 07:18:00,54.1,53.3,30.15,WSW,248,0.0,0.0,97,0.00,CLR,,0.00,WeatherDisplay:10.37,2013-04-09 11:18:00,
2013-04-09 07:23:00,54.1,53.3,30.15,WSW,248,0.0,0.0,97,0.00,CLR,,0.00,WeatherDisplay:10.37,2013-04-09 11:23:00,
2013-04-09 07:28:00,54.1,53.3,30.15,WSW,248,0.0,0.0,97,0.00,CLR,,0.00,WeatherDisplay:10.37,2013-04-09 11:28:00,
2013-04-09 07:33:00,54.1,53.6,30.15,WSW,248,0.0,0.0,98,0.00,CLR,,0.00,WeatherDisplay:10.37,2013-04-09 11:33:00,
2013-04-09 07:38:00,54.3,53.8,30.15,WSW,248,0.0,0.0,98,0.00,CLR,,0.00,WeatherDisplay:10.37,2013-04-09 11:38:00,
2013-04-09 07:43:00,54.3,53.8,30.15,WSW,248,0.0,0.0,98,0.00,CLR,,0.00,WeatherDisplay:10.37,2013-04-09 11:43:00,
2013-04-09 07:48:00,54.5,53.9,30.15,WSW,248,0.0,0.0,98,0.00,CLR,,0.00,WeatherDisplay:10.37,2013-04-09 11:48:00,
2013-04-09 07:53:00,54.7,54.1,30.15,WSW,248,0.0,0.0,98,0.00,CLR,,0.00,WeatherDisplay:10.37,2013-04-09 11:53:00,
2013-04-09 07:58:00,55.0,54.5,30.15,WSW,248,0.0,0.0,98,0.00,CLR,,0.00,WeatherDisplay:10.37,2013-04-09 11:58:00,
2013-04-09 08:03:00,55.2,54.7,30.15,WSW,248,0.0,0.0,98,0.00,CLR,,0.00,WeatherDisplay:10.37,2013-04-09 12:03:00,
2013-04-09 08:08:00,55.6,55.0,30.15,WSW,248,0.0,0.0,98,0.00,CLR,,0.00,WeatherDisplay:10.37,2013-04-09 12:08:00,
2013-04-09 08:13:00,55.9,55.4,30.15,WSW,248,0.0,0.0,98,0.00,CLR,,0.00,WeatherDisplay:10.37,2013-04-09 12:13:00,
2013-04-09 08:18:00,56.3,55.7,30.15,WSW,248,0.0,0.0,98,0.00,CLR,,0.00,WeatherDisplay:10.37,2013-04-09 12:18:00,
2013-04-09 08:23:00,56.7,56.1,30.15,WSW,248,0.0,0.0,98,0.00,CLR,,0.00,WeatherDisplay:10.37,2013-04-09 12:23:00,
2013-04-09 08:28:00,57.6,57.0,30.15,WSW,248,0.0,0.0,98,0.00,CLR,,0.00,WeatherDisplay:10.37,2013-04-09 12:28:00,
2013-04-09 08:33:00,58.5,57.9,30.15,SSE,158,0.0,0.0,98,0.00,CLR,,0.00,WeatherDisplay:10.37,2013-04-09 12:33:00,
2013-04-09 08:38:00,59.5,58.7,30.15,SSE,158,0.0,0.0,97,0.00,CLR,,0.00,WeatherDisplay:10.37,2013-04-09 12:38:00,
2013-04-09 08:43:00,60.4,59.6,30.15,SE,135,0.0,0.0,97,0.00,CLR,,0.00,WeatherDisplay:10.37,2013-04-09 12:43:00,
2013-04-09 08:48:00,61.0,59.5,30.15,SSE,158,0.0,0.0,95,0.00,CLR,,0.00,WeatherDisplay:10.37,2013-04-09 12:48:00,
2013-04-09 08:53:00,61.7,59.7,30.15,SE,135,0.0,0.0,93,0.00,CLR,,0.00,WeatherDisplay:10.37,2013-04-09 12:53:00,
2013-04-09 08:58:00,62.8,59.5,30.15,SW,225,0.0,0.0,89,0.00,CLR,,0.00,WeatherDisplay:10.37,2013-04-09 12:58:00,
2013-04-09 09:03:00,63.7,59.1,30.15,SW,225,0.0,0.0,85,0.00,CLR,,0.00,WeatherDisplay:10.37,2013-04-09 13:03:00,
2013-04-09 09:08:00,64.8,57.4,30.15,ESE,112,0.0,0.0,77,0.00,CLR,,0.00,WeatherDisplay:10.37,2013-04-09 13:08:00,
2013-04-09 09:13:00,66.0,56.3,30.18,SE,135,0.0,0.0,71,0.00,CLR,,0.00,WeatherDisplay:10.37,2013-04-09 13:13:00,
2013-04-09 09:18:00,66.9,55.6,30.18,SSE,158,0.0,0.0,67,0.00,CLR,,0.00,WeatherDisplay:10.37,2013-04-09 13:18:00,
2013-04-09 09:23:00,67.5,53.5,30.18,SW,225,0.0,0.0,61,0.00,CLR,,0.00,WeatherDisplay:10.37,2013-04-09 13:23:00,
2013-04-09 09:28:00,68.4,52.5,30.15,North,0,0.0,0.0,57,0.00,CLR,,0.00,WeatherDisplay:10.37,2013-04-09 13:28:00,
2013-04-09 09:33:00,68.9,52.1,30.15,SE,135,0.0,0.0,55,0.00,CLR,,0.00,WeatherDisplay:10.37,2013-04-09 13:33:00,
2013-04-09 09:38:00,69.3,51.4,30.15,SW,225,0.0,0.0,53,0.00,CLR,,0.00,WeatherDisplay:10.37,2013-04-09 13:38:00,
2013-04-09 09:43:00,69.6,50.7,30.15,SSW,202,0.0,0.0,51,0.00,CLR,,0.00,WeatherDisplay:10.37,2013-04-09 13:43:00,
2013-04-09 09:48:00,70.2,50.6,30.15,SE,135,2.6,0.0,50,0.00,CLR,,0.00,WeatherDisplay:10.37,2013-04-09 13:48:00,
2013-04-09 09:53:00,70.3,50.8,30.15,SW,225,0.0,0.0,50,0.00,CLR,,0.00,WeatherDisplay:10.37,2013-04-09 13:53:00,
2013-04-09 09:58:00,71.2,50.5,30.15,SE,135,0.0,0.0,48,0.00,CLR,,0.00,WeatherDisplay:10.37,2013-04-09 13:58:00,
2013-04-09 10:03:00,71.8,49.9,30.15,WSW,248,0.0,0.0,46,0.00,CLR,,0.00,WeatherDisplay:10.37,2013-04-09 14:03:00,
2013-04-09 10:08:00,72.1,49.0,30.15,ESE,112,0.0,0.0,44,0.00,CLR,,0.00,WeatherDisplay:10.37,2013-04-09 14:08:00,
2013-04-09 10:14:00,72.7,48.9,30.15,South,180,0.0,0.0,43,0.00,CLR,,0.00,WeatherDisplay:10.37,2013-04-09 14:14:00,
2013-04-09 10:19:00,73.2,49.4,30.15,NW,315,0.0,0.0,43,0.00,CLR,,0.00,WeatherDisplay:10.37,2013-04-09 14:19:00,
2013-04-09 10:24:00,73.8,48.6,30.15,SE,135,0.0,0.0,41,0.00,CLR,,0.00,WeatherDisplay:10.37,2013-04-09 14:24:00,
2013-04-09 10:29:00,74.8,47.5,30.15,ESE,112,0.0,0.0,38,0.00,CLR,,0.00,WeatherDisplay:10.37,2013-04-09 14:29:00,
2013-04-09 10:34:00,76.1,48.6,30.15,North,0,0.0,0.0,38,0.00,CLR,,0.00,WeatherDisplay:10.37,2013-04-09 14:34:00,
2013-04-09 10:39:00,76.8,47.1,30.15,North,0,0.0,0.0,35,0.00,CLR,,0.00,WeatherDisplay:10.37,2013-04-09 14:39:00,
2013-04-09 10:44:00,77.5,46.2,30.15,ESE,112,4.6,0.0,33,0.00,CLR,,0.00,WeatherDisplay:10.37,2013-04-09 14:44:00,
2013-04-09 10:49:00,77.4,46.0,30.15,NNW,338,0.0,0.0,33,0.00,CLR,,0.00,WeatherDisplay:10.37,2013-04-09 14:49:00,
2013-04-09 10:54:00,79.0,47.4,30.15,NNW,338,0.0,0.0,33,0.00,CLR,,0.00,WeatherDisplay:10.37,2013-04-09 14:54:00,
2013-04-09 10:59:00,80.4,47.0,30.15,NNW,338,0.0,0.0,31,0.00,CLR,,0.00,WeatherDisplay:10.37,2013-04-09 14:59:00,
2013-04-09 11:04:00,79.5,46.2,30.15,SSE,158,3.1,0.0,31,0.00,CLR,,0.00,WeatherDisplay:10.37,2013-04-09 15:04:00,
2013-04-09 11:09:00,80.2,46.0,30.15,ESE,112,3.5,0.0,30,0.00,CLR,,0.00,WeatherDisplay:10.37,2013-04-09 15:09:00,
2013-04-09 11:14:00,80.8,46.4,30.15,NNW,338,0.0,0.0,30,0.00,CLR,,0.00,WeatherDisplay:10.37,2013-04-09 15:14:00,
2013-04-09 11:19:00,80.2,46.9,30.15,NNW,338,0.0,0.0,31,0.00,CLR,,0.00,WeatherDisplay:10.37,2013-04-09 15:19:00,
2013-04-09 11:24:00,81.0,46.6,30.15,NW,315,0.0,0.0,30,0.00,CLR,,0.00,WeatherDisplay:10.37,2013-04-09 15:24:00,
2013-04-09 11:30:00,81.3,46.0,30.15,SSW,202,3.5,0.0,29,0.00,CLR,,0.00,WeatherDisplay:10.37,2013-04-09 15:30:00,
2013-04-09 11:35:00,81.7,46.3,30.15,SE,135,0.0,0.0,29,0.00,CLR,,0.00,WeatherDisplay:10.37,2013-04-09 15:35:00,
2013-04-09 11:40:00,81.9,46.5,30.15,WNW,292,2.3,0.0,29,0.00,CLR,,0.00,WeatherDisplay:10.37,2013-04-09 15:40:00,
2013-04-09 11:45:00,82.4,44.1,30.15,NNW,338,0.0,2.6,26,0.00,CLR,,0.00,WeatherDisplay:10.37,2013-04-09 15:45:00,
2013-04-09 11:50:00,83.7,46.1,30.15,WNW,292,0.0,0.0,27,0.00,CLR,,0.00,WeatherDisplay:10.37,2013-04-09 15:50:00,
2013-04-09 11:55:00,82.9,44.5,30.15,NW,315,0.0,0.0,26,0.00,CLR,,0.00,WeatherDisplay:10.37,2013-04-09 15:55:00,
2013-04-09 12:00:00,84.9,44.1,30.15,NW,315,0.0,0.0,24,0.00,CLR,,0.00,WeatherDisplay:10.37,2013-04-09 16:00:00,
2013-04-09 12:05:00,85.5,43.4,30.15,SE,135,0.0,0.0,23,0.00,CLR,,0.00,WeatherDisplay:10.37,2013-04-09 16:05:00,
2013-04-09 12:10:00,86.4,44.2,30.15,SSE,158,0.0,0.0,23,0.00,CLR,,0.00,WeatherDisplay:10.37,2013-04-09 16:10:00,
2013-04-09 12:15:00,87.3,42.6,30.15,ESE,112,0.0,0.0,21,0.00,CLR,,0.00,WeatherDisplay:10.37,2013-04-09 16:15:00,
2013-04-09 12:20:00,87.1,42.4,30.15,South,180,3.5,0.0,21,0.00,CLR,,0.00,WeatherDisplay:10.37,2013-04-09 16:20:00,
2013-04-09 12:25:00,87.4,41.4,30.15,NNE,22,0.0,0.0,20,0.00,CLR,,0.00,WeatherDisplay:10.37,2013-04-09 16:25:00,
2013-04-09 12:30:00,87.4,40.1,30.15,WNW,292,2.3,0.0,19,0.00,CLR,,0.00,WeatherDisplay:10.37,2013-04-09 16:30:00,
2013-04-09 12:35:00,87.6,40.3,30.15,West,270,0.0,0.0,19,0.00,CLR,,0.00,WeatherDisplay:10.37,2013-04-09 16:35:00,
2013-04-09 12:40:00,87.1,39.8,30.15,South,180,3.5,0.0,19,0.00,CLR,,0.00,WeatherDisplay:10.37,2013-04-09 16:40:00,
2013-04-09 12:45:00,86.9,39.7,30.12,WNW,292,0.0,0.0,19,0.00,CLR,,0.00,WeatherDisplay:10.37,2013-04-09 16:45:00,
2013-04-09 12:50:00,87.1,39.8,30.12,West,270,0.0,0.0,19,0.00,CLR,,0.00,WeatherDisplay:10.37,2013-04-09 16:50:00,
2013-04-09 12:55:00,87.6,40.3,30.12,West,270,0.0,0.0,19,0.00,CLR,,0.00,WeatherDisplay:10.37,2013-04-09 16:55:00,
2013-04-09 13:00:00,88.2,39.3,30.12,West,270,2.3,0.0,18,0.00,CLR,,0.00,WeatherDisplay:10.37,2013-04-09 17:00:00,
2013-04-09 13:05:00,88.7,39.7,30.12,SE,135,2.3,0.0,18,0.00,CLR,,0.00,WeatherDisplay:10.37,2013-04-09 17:05:00,
2013-04-09 13:10:00,89.2,41.6,30.12,WNW,292,0.0,0.0,19,0.00,CLR,,0.00,WeatherDisplay:10.37,2013-04-09 17:10:00,
2013-04-09 13:15:00,89.4,40.3,30.12,NW,315,2.3,0.0,18,0.00,CLR,,0.00,WeatherDisplay:10.37,2013-04-09 17:15:00,
2013-04-09 13:20:00,88.9,39.9,30.12,NW,315,0.0,0.0,18,0.00,CLR,,0.00,WeatherDisplay:10.37,2013-04-09 17:20:00,
2013-04-09 13:25:00,89.8,40.6,30.12,SE,135,2.6,0.0,18,0.00,CLR,,0.00,WeatherDisplay:10.37,2013-04-09 17:25:00,
2013-04-09 13:30:00,90.0,40.8,30.12,SSE,158,0.0,0.0,18,0.00,CLR,,0.00,WeatherDisplay:10.37,2013-04-09 17:30:00,
2013-04-09 13:36:00,90.7,41.3,30.12,WSW,248,0.0,0.0,18,0.00,CLR,,0.00,WeatherDisplay:10.37,2013-04-09 17:36:00,
2013-04-09 13:41:00,89.4,40.3,30.12,NNE,22,0.0,0.0,18,0.00,CLR,,0.00,WeatherDisplay:10.37,2013-04-09 17:41:00,
2013-04-09 13:46:00,90.3,39.6,30.12,SE,135,2.3,0.0,17,0.00,CLR,,0.00,WeatherDisplay:10.37,2013-04-09 17:46:00,
2013-04-09 13:51:00,90.0,39.3,30.12,SE,135,0.0,0.0,17,0.00,CLR,,0.00,WeatherDisplay:10.37,2013-04-09 17:51:00,
2013-04-09 13:56:00,88.3,39.5,30.12,SE,135,3.6,3.6,18,0.00,CLR,,0.00,WeatherDisplay:10.37,2013-04-09 17:56:00,
2013-04-09 14:01:00,88.2,39.3,30.12,SSE,158,0.0,0.0,18,0.00,CLR,,0.00,WeatherDisplay:10.37,2013-04-09 18:01:00,
2013-04-09 14:06:00,87.1,38.4,30.12,NE,45,0.0,0.0,18,0.00,CLR,,0.00,WeatherDisplay:10.37,2013-04-09 18:06:00,
2013-04-09 14:11:00,88.0,39.2,30.12,SE,135,3.1,0.0,18,0.00,CLR,,0.00,WeatherDisplay:10.37,2013-04-09 18:11:00,
2013-04-09 14:16:00,88.9,39.9,30.09,West,270,0.0,0.0,18,0.00,CLR,,0.00,WeatherDisplay:10.37,2013-04-09 18:16:00,
2013-04-09 14:21:00,88.5,39.6,30.09,ESE,112,0.0,0.0,18,0.00,CLR,,0.00,WeatherDisplay:10.37,2013-04-09 18:21:00,
2013-04-09 14:26:00,89.2,40.2,30.09,South,180,2.3,0.0,18,0.00,CLR,,0.00,WeatherDisplay:10.37,2013-04-09 18:26:00,
2013-04-09 14:31:00,90.0,40.8,30.09,SE,135,0.0,0.0,18,0.00,CLR,,0.00,WeatherDisplay:10.37,2013-04-09 18:31:00,
2013-04-09 14:37:00,88.9,39.9,30.09,SE,135,3.5,0.0,18,0.00,CLR,,0.00,WeatherDisplay:10.37,2013-04-09 18:37:00,
2013-04-09 14:42:00,90.1,40.9,30.09,SW,225,0.0,0.0,18,0.00,CLR,,0.00,WeatherDisplay:10.37,2013-04-09 18:42:00,
2013-04-09 14:47:00,90.1,40.9,30.09,NW,315,0.0,0.0,18,0.00,CLR,,0.00,WeatherDisplay:10.37,2013-04-09 18:47:00,
2013-04-09 14:52:00,91.4,40.5,30.09,SE,135,5.9,5.9,17,0.00,CLR,,0.00,WeatherDisplay:10.37,2013-04-09 18:52:00,
2013-04-09 14:57:00,91.4,40.5,30.09,South,180,0.0,0.0,17,0.00,CLR,,0.00,WeatherDisplay:10.37,2013-04-09 18:57:00,
2013-04-09 15:02:00,90.9,40.0,30.09,South,180,0.0,0.0,17,0.00,CLR,,0.00,WeatherDisplay:10.37,2013-04-09 19:02:00,
2013-04-09 15:07:00,90.1,39.4,30.09,NW,315,0.0,0.0,17,0.00,CLR,,0.00,WeatherDisplay:10.37,2013-04-09 19:07:00,
2013-04-09 15:12:00,89.2,40.2,30.06,SSE,158,5.8,5.8,18,0.00,CLR,,0.00,WeatherDisplay:10.37,2013-04-09 19:12:00,
2013-04-09 15:17:00,88.7,39.7,30.06,SSE,158,0.0,0.0,18,0.00,CLR,,0.00,WeatherDisplay:10.37,2013-04-09 19:17:00,
2013-04-09 15:22:00,89.1,40.0,30.06,SSW,202,0.0,0.0,18,0.00,CLR,,0.00,WeatherDisplay:10.37,2013-04-09 19:22:00,
2013-04-09 15:27:00,89.1,40.0,30.06,North,0,3.5,0.0,18,0.00,CLR,,0.00,WeatherDisplay:10.37,2013-04-09 19:27:00,
2013-04-09 15:36:00,89.1,40.0,30.06,NNW,338,0.0,0.0,18,0.00,CLR,,0.00,WeatherDisplay:10.37,2013-04-09 19:36:00,
2013-04-09 15:41:00,89.6,40.5,30.06,South,180,0.0,0.0,18,0.00,CLR,,0.00,WeatherDisplay:10.37,2013-04-09 19:41:00,
2013-04-09 15:46:00,89.4,40.3,30.06,SSW,202,0.0,0.0,18,0.00,CLR,,0.00,WeatherDisplay:10.37,2013-04-09 19:46:00,
2013-04-09 15:51:00,89.8,40.6,30.06,NNW,338,0.0,0.0,18,0.00,CLR,,0.00,WeatherDisplay:10.37,2013-04-09 19:51:00,
2013-04-09 15:57:00,88.3,39.5,30.06,ENE,68,4.6,4.6,18,0.00,CLR,,0.00,WeatherDisplay:10.37,2013-04-09 19:57:00,
2013-04-09 16:02:00,88.5,39.6,30.06,ESE,112,0.0,0.0,18,0.00,CLR,,0.00,WeatherDisplay:10.37,2013-04-09 20:02:00,
2013-04-09 16:07:00,87.8,39.0,30.06,ESE,112,0.0,0.0,18,0.00,CLR,,0.00,WeatherDisplay:10.37,2013-04-09 20:07:00,
2013-04-09 16:12:00,87.3,38.6,30.06,South,180,2.3,0.0,18,0.00,CLR,,0.00,WeatherDisplay:10.37,2013-04-09 20:12:00,
2013-04-09 16:17:00,86.5,39.4,30.06,ESE,112,4.0,4.0,19,0.00,CLR,,0.00,WeatherDisplay:10.37,2013-04-09 20:17:00,
2013-04-09 16:22:00,86.4,39.2,30.06,WSW,248,0.0,0.0,19,0.00,CLR,,0.00,WeatherDisplay:10.37,2013-04-09 20:22:00,
2013-04-09 16:27:00,86.2,37.7,30.03,North,0,0.0,0.0,18,0.00,CLR,,0.00,WeatherDisplay:10.37,2013-04-09 20:27:00,
2013-04-09 16:32:00,86.4,39.2,30.03,West,270,0.0,0.0,19,0.00,CLR,,0.00,WeatherDisplay:10.37,2013-04-09 20:32:00,
2013-04-09 16:37:00,86.4,39.2,30.03,NW,315,0.0,0.0,19,0.00,CLR,,0.00,WeatherDisplay:10.37,2013-04-09 20:37:00,
2013-04-09 16:42:00,86.7,39.5,30.03,SE,135,0.0,0.0,19,0.00,CLR,,0.00,WeatherDisplay:10.37,2013-04-09 20:42:00,
2013-04-09 16:47:00,87.1,39.8,30.03,NW,315,0.0,0.0,19,0.00,CLR,,0.00,WeatherDisplay:10.37,2013-04-09 20:47:00,
2013-04-09 16:52:00,86.9,39.7,30.03,NW,315,0.0,0.0,19,0.00,CLR,,0.00,WeatherDisplay:10.37,2013-04-09 20:52:00,
2013-04-09 16:57:00,86.5,39.4,30.03,West,270,0.0,0.0,19,0.00,CLR,,0.00,WeatherDisplay:10.37,2013-04-09 20:57:00,
2013-04-09 17:02:00,86.2,39.1,30.03,NW,315,0.0,0.0,19,0.00,CLR,,0.00,WeatherDisplay:10.37,2013-04-09 21:02:00,
2013-04-09 17:07:00,85.8,38.8,30.03,NW,315,0.0,0.0,19,0.00,CLR,,0.00,WeatherDisplay:10.37,2013-04-09 21:07:00,
2013-04-09 17:12:00,85.8,40.1,30.06,WNW,292,2.3,0.0,20,0.00,CLR,,0.00,WeatherDisplay:10.37,2013-04-09 21:12:00,
2013-04-09 17:17:00,85.5,39.8,30.06,SE,135,0.0,0.0,20,0.00,CLR,,0.00,WeatherDisplay:10.37,2013-04-09 21:17:00,
2013-04-09 17:23:00,85.8,40.1,30.06,North,0,0.0,0.0,20,0.00,CLR,,0.00,WeatherDisplay:10.37,2013-04-09 21:23:00,
2013-04-09 17:28:00,85.8,40.1,30.03,SSW,202,2.3,0.0,20,0.00,CLR,,0.00,WeatherDisplay:10.37,2013-04-09 21:28:00,
2013-04-09 17:33:00,85.5,39.8,30.03,SW,225,2.6,0.0,20,0.00,CLR,,0.00,WeatherDisplay:10.37,2013-04-09 21:33:00,
2013-04-09 17:38:00,85.5,39.8,30.03,NNW,338,0.0,0.0,20,0.00,CLR,,0.00,WeatherDisplay:10.37,2013-04-09 21:38:00,
2013-04-09 17:43:00,85.3,39.7,30.03,NNW,338,0.0,0.0,20,0.00,CLR,,0.00,WeatherDisplay:10.37,2013-04-09 21:43:00,
2013-04-09 17:48:00,84.7,39.2,30.03,NW,315,2.3,0.0,20,0.00,CLR,,0.00,WeatherDisplay:10.37,2013-04-09 21:48:00,
2013-04-09 17:53:00,84.7,39.2,30.03,NW,315,0.0,0.0,20,0.00,CLR,,0.00,WeatherDisplay:10.37,2013-04-09 21:53:00,
2013-04-09 17:58:00,84.4,38.9,30.06,NW,315,0.0,0.0,20,0.00,CLR,,0.00,WeatherDisplay:10.37,2013-04-09 21:58:00,
2013-04-09 18:03:00,84.2,40.0,30.06,SE,135,0.0,0.0,21,0.00,CLR,,0.00,WeatherDisplay:10.37,2013-04-09 22:03:00,
2013-04-09 18:08:00,83.8,39.7,30.06,South,180,0.0,0.0,21,0.00,CLR,,0.00,WeatherDisplay:10.37,2013-04-09 22:08:00,
2013-04-09 18:13:00,83.3,39.3,30.06,NW,315,5.8,5.8,21,0.00,CLR,,0.00,WeatherDisplay:10.37,2013-04-09 22:13:00,
2013-04-09 18:18:00,82.9,39.0,30.06,ESE,112,5.8,5.8,21,0.00,CLR,,0.00,WeatherDisplay:10.37,2013-04-09 22:18:00,
2013-04-09 18:23:00,82.8,40.0,30.06,WSW,248,0.0,0.0,22,0.00,CLR,,0.00,WeatherDisplay:10.37,2013-04-09 22:23:00,
2013-04-09 18:28:00,82.4,39.7,30.06,SSE,158,2.3,0.0,22,0.00,CLR,,0.00,WeatherDisplay:10.37,2013-04-09 22:28:00,
2013-04-09 18:33:00,82.4,38.5,30.06,SW,225,0.0,0.0,21,0.00,CLR,,0.00,WeatherDisplay:10.37,2013-04-09 22:33:00,
2013-04-09 18:38:00,82.0,40.6,30.06,WSW,248,4.6,0.0,23,0.00,CLR,,0.00,WeatherDisplay:10.37,2013-04-09 22:38:00,
2013-04-09 18:44:00,81.7,40.3,30.06,SSW,202,0.0,0.0,23,0.00,CLR,,0.00,WeatherDisplay:10.37,2013-04-09 22:44:00,
2013-04-09 18:49:00,81.5,41.2,30.06,SW,225,0.0,0.0,24,0.00,CLR,,0.00,WeatherDisplay:10.37,2013-04-09 22:49:00,
2013-04-09 18:54:00,81.3,41.1,30.06,ESE,112,5.8,0.0,24,0.00,CLR,,0.00,WeatherDisplay:10.37,2013-04-09 22:54:00,
2013-04-09 18:59:00,81.0,41.8,30.06,NNE,22,0.0,0.0,25,0.00,CLR,,0.00,WeatherDisplay:10.37,2013-04-09 22:59:00,
2013-04-09 19:04:00,80.6,41.5,30.06,SSW,202,0.0,0.0,25,0.00,CLR,,0.00,WeatherDisplay:10.37,2013-04-09 23:04:00,
2013-04-09 19:09:00,80.2,42.2,30.06,WNW,292,0.0,0.0,26,0.00,CLR,,0.00,WeatherDisplay:10.37,2013-04-09 23:09:00,
2013-04-09 19:14:00,79.9,42.9,30.03,NNW,338,0.0,0.0,27,0.00,CLR,,0.00,WeatherDisplay:10.37,2013-04-09 23:14:00,
2013-04-09 19:19:00,79.7,42.8,30.03,WSW,248,0.0,0.0,27,0.00,CLR,,0.00,WeatherDisplay:10.37,2013-04-09 23:19:00,
2013-04-09 19:24:00,79.5,42.6,30.03,ESE,112,0.0,0.0,27,0.00,CLR,,0.00,WeatherDisplay:10.37,2013-04-09 23:24:00,
2013-04-09 19:29:00,79.2,43.2,30.06,SSE,158,0.0,0.0,28,0.00,CLR,,0.00,WeatherDisplay:10.37,2013-04-09 23:29:00,
2013-04-09 19:34:00,78.8,44.7,30.06,West,270,0.0,0.0,30,0.00,CLR,,0.00,WeatherDisplay:10.37,2013-04-09 23:34:00,
2013-04-09 19:39:00,78.4,44.4,30.06,WNW,292,0.0,0.0,30,0.00,CLR,,0.00,WeatherDisplay:10.37,2013-04-09 23:39:00,
2013-04-09 19:44:00,77.9,44.0,30.06,WNW,292,0.0,0.0,30,0.00,CLR,,0.00,WeatherDisplay:10.37,2013-04-09 23:44:00,
2013-04-09 19:49:00,77.5,44.5,30.06,WNW,292,0.0,0.0,31,0.00,CLR,,0.00,WeatherDisplay:10.37,2013-04-09 23:49:00,
2013-04-09 19:54:00,77.4,44.4,30.06,WNW,292,0.0,0.0,31,0.00,CLR,,0.00,WeatherDisplay:10.37,2013-04-09 23:54:00,
2013-04-09 19:59:00,76.6,44.6,30.06,WNW,292,0.0,0.0,32,0.00,CLR,,0.00,WeatherDisplay:10.37,2013-04-09 23:59:00,
2013-04-09 20:04:00,76.1,44.1,30.06,WNW,292,0.0,0.0,32,0.00,CLR,,0.00,WeatherDisplay:10.37,2013-04-10 00:04:00,
2013-04-09 20:09:00,75.7,44.6,30.06,WNW,292,0.0,0.0,33,0.00,CLR,,0.00,WeatherDisplay:10.37,2013-04-10 00:09:00,
2013-04-09 20:14:00,75.4,44.3,30.06,WNW,292,0.0,0.0,33,0.00,CLR,,0.00,WeatherDisplay:10.37,2013-04-10 00:14:00,
2013-04-09 20:19:00,74.8,44.6,30.06,WNW,292,0.0,0.0,34,0.00,CLR,,0.00,WeatherDisplay:10.37,2013-04-10 00:19:00,
2013-04-09 20:24:00,74.7,45.2,30.06,WNW,292,0.0,0.0,35,0.00,CLR,,0.00,WeatherDisplay:10.37,2013-04-10 00:24:00,
2013-04-09 20:29:00,74.5,45.0,30.06,SW,225,0.0,0.0,35,0.00,CLR,,0.00,WeatherDisplay:10.37,2013-04-10 00:29:00,
2013-04-09 20:34:00,73.9,45.3,30.06,WSW,248,0.0,0.0,36,0.00,CLR,,0.00,WeatherDisplay:10.37,2013-04-10 00:34:00,
2013-04-09 20:39:00,73.4,45.5,30.06,WSW,248,0.0,0.0,37,0.00,CLR,,0.00,WeatherDisplay:10.37,2013-04-10 00:39:00,
2013-04-09 20:44:00,73.0,45.9,30.06,WSW,248,0.0,0.0,38,0.00,CLR,,0.00,WeatherDisplay:10.37,2013-04-10 00:44:00,
2013-04-09 20:49:00,72.9,47.1,30.06,WSW,248,0.0,0.0,40,0.00,CLR,,0.00,WeatherDisplay:10.37,2013-04-10 00:49:00,
2013-04-09 20:54:00,72.3,47.3,30.06,WSW,248,0.0,0.0,41,0.00,CLR,,0.00,WeatherDisplay:10.37,2013-04-10 00:54:00,
2013-04-09 20:59:00,71.8,47.4,30.06,WSW,248,0.0,0.0,42,0.00,CLR,,0.00,WeatherDisplay:10.37,2013-04-10 00:59:00,
2013-04-09 21:04:00,71.6,47.3,30.06,WSW,248,0.0,0.0,42,0.00,CLR,,0.00,WeatherDisplay:10.37,2013-04-10 01:04:00,
2013-04-09 21:09:00,71.1,47.4,30.06,WSW,248,0.0,0.0,43,0.00,CLR,,0.00,WeatherDisplay:10.37,2013-04-10 01:09:00,
2013-04-09 21:14:00,70.9,47.3,30.06,WSW,248,0.0,0.0,43,0.00,CLR,,0.00,WeatherDisplay:10.37,2013-04-10 01:14:00,
2013-04-09 21:19:00,70.7,47.7,30.06,WSW,248,0.0,0.0,44,0.00,CLR,,0.00,WeatherDisplay:10.37,2013-04-10 01:19:00,
2013-04-09 21:24:00,70.3,48.0,30.06,WSW,248,0.0,0.0,45,0.00,CLR,,0.00,WeatherDisplay:10.37,2013-04-10 01:24:00,
2013-04-09 21:29:00,70.2,47.8,30.09,WSW,248,0.0,0.0,45,0.00,CLR,,0.00,WeatherDisplay:10.37,2013-04-10 01:29:00,
2013-04-09 21:34:00,69.8,48.1,30.09,WSW,248,0.0,0.0,46,0.00,CLR,,0.00,WeatherDisplay:10.37,2013-04-10 01:34:00,
2013-04-09 21:39:00,69.6,47.9,30.09,WSW,248,0.0,0.0,46,0.00,CLR,,0.00,WeatherDisplay:10.37,2013-04-10 01:39:00,
2013-04-09 21:44:00,69.4,48.3,30.06,WSW,248,0.0,0.0,47,0.00,CLR,,0.00,WeatherDisplay:10.37,2013-04-10 01:44:00,
2013-04-09 21:49:00,69.1,48.0,30.06,WSW,248,0.0,0.0,47,0.00,CLR,,0.00,WeatherDisplay:10.37,2013-04-10 01:49:00,
2013-04-09 21:54:00,68.9,48.4,30.06,WSW,248,0.0,0.0,48,0.00,CLR,,0.00,WeatherDisplay:10.37,2013-04-10 01:54:00,
2013-04-09 21:59:00,68.7,48.8,30.09,WSW,248,0.0,0.0,49,0.00,CLR,,0.00,WeatherDisplay:10.37,2013-04-10 01:59:00,
2013-04-09 22:04:00,68.5,49.2,30.09,WSW,248,0.0,0.0,50,0.00,CLR,,0.00,WeatherDisplay:10.37,2013-04-10 02:04:00,
2013-04-09 22:09:00,68.4,49.0,30.09,WSW,248,0.0,0.0,50,0.00,CLR,,0.00,WeatherDisplay:10.37,2013-04-10 02:09:00,
2013-04-09 22:14:00,68.2,48.8,30.09,WSW,248,0.0,0.0,50,0.00,CLR,,0.00,WeatherDisplay:10.37,2013-04-10 02:14:00,
2013-04-09 22:20:00,68.0,49.2,30.09,WSW,248,0.0,0.0,51,0.00,CLR,,0.00,WeatherDisplay:10.37,2013-04-10 02:20:00,
2013-04-09 22:25:00,67.8,49.5,30.09,WSW,248,0.0,0.0,52,0.00,CLR,,0.00,WeatherDisplay:10.37,2013-04-10 02:25:00,
2013-04-09 22:30:00,67.6,49.4,30.09,WSW,248,0.0,0.0,52,0.00,CLR,,0.00,WeatherDisplay:10.37,2013-04-10 02:30:00,
2013-04-09 22:35:00,67.3,49.0,30.09,WSW,248,0.0,0.0,52,0.00,CLR,,0.00,WeatherDisplay:10.37,2013-04-10 02:35:00,
2013-04-09 22:40:00,67.1,48.9,30.09,WSW,248,0.0,0.0,52,0.00,CLR,,0.00,WeatherDisplay:10.37,2013-04-10 02:40:00,
2013-04-09 22:45:00,66.9,49.2,30.09,WSW,248,0.0,0.0,53,0.00,CLR,,0.00,WeatherDisplay:10.37,2013-04-10 02:45:00,
2013-04-09 22:50:00,66.7,49.6,30.09,WSW,248,0.0,0.0,54,0.00,CLR,,0.00,WeatherDisplay:10.37,2013-04-10 02:50:00,
2013-04-09 22:55:00,66.6,49.9,30.09,WSW,248,0.0,0.0,55,0.00,CLR,,0.00,WeatherDisplay:10.37,2013-04-10 02:55:00,
2013-04-09 23:00:00,66.4,49.7,30.09,WSW,248,0.0,0.0,55,0.00,CLR,,0.00,WeatherDisplay:10.37,2013-04-10 03:00:00,
2013-04-09 23:05:00,66.2,50.0,30.09,WSW,248,0.0,0.0,56,0.00,CLR,,0.00,WeatherDisplay:10.37,2013-04-10 03:05:00,
2013-04-09 23:10:00,66.0,50.3,30.09,WSW,248,0.0,0.0,57,0.00,CLR,,0.00,WeatherDisplay:10.37,2013-04-10 03:10:00,
2013-04-09 23:15:00,65.8,50.6,30.06,WSW,248,0.0,0.0,58,0.00,CLR,,0.00,WeatherDisplay:10.37,2013-04-10 03:15:00,
2013-04-09 23:20:00,65.7,50.5,30.06,WSW,248,0.0,0.0,58,0.00,CLR,,0.00,WeatherDisplay:10.37,2013-04-10 03:20:00,
2013-04-09 23:25:00,65.5,50.8,30.06,WSW,248,0.0,0.0,59,0.00,CLR,,0.00,WeatherDisplay:10.37,2013-04-10 03:25:00,
2013-04-09 23:30:00,65.5,51.2,30.06,WSW,248,0.0,0.0,60,0.00,CLR,,0.00,WeatherDisplay:10.37,2013-04-10 03:30:00,
2013-04-09 23:35:00,65.3,51.1,30.06,WSW,248,0.0,0.0,60,0.00,CLR,,0.00,WeatherDisplay:10.37,2013-04-10 03:35:00,
2013-04-09 23:40:00,65.1,51.3,30.06,WSW,248,0.0,0.0,61,0.00,CLR,,0.00,WeatherDisplay:10.37,2013-04-10 03:40:00,
2013-04-09 23:45:00,64.9,51.2,30.06,WSW,248,0.0,0.0,61,0.00,CLR,,0.00,WeatherDisplay:10.37,2013-04-10 03:45:00,
2013-04-09 23:50:00,64.8,51.4,30.06,WSW,248,0.0,0.0,62,0.00,CLR,,0.00,WeatherDisplay:10.37,2013-04-10 03:50:00,
2013-04-09 23:55:00,64.6,51.3,30.06,WSW,248,0.0,0.0,62,0.00,CLR,,0.00,WeatherDisplay:10.37,2013-04-10 03:55:00,